METAR Formatted Surface Weather Observation
Issued by NWS

Home | Current Version | Previous Version | Text Only | Print | Product List | Glossary On
Versions: 1 2 3 4 5 6 7 8 9 10 11 12 13 14 15 16 17 18 19 20 21 22 23 24 25 26 27
461
SAUS45 KBOU 280558
MTRABH
METAR KABH 280556Z AUTO 26009KT CLR M17/M17 A2965 RMK AO2 SLP156
T11721172 58010 $



USA.gov is the U.S. government's official web portal to all federal, state and local government web resources and services.